SAS247 ENBR-EPWA

Flight info

Callsign SAS247
Flight time 1h 53m
Altitude 39000
Route TINIG DCT REPKU DCT LARMA DCT LASGU DCT SORIX
Aircraft B736/M-SDE2E3FGHIRWXY/LB1

Departure

Time 2026-05-06 18:33
Airport Bergen Airport, Flesland (ENBR)

Arrival

Time 2026-05-06 20:26
Airport Warsaw Chopin Airport (EPWA)
Time Latitude Longitude Altitude Speed Heading
2026-05-06 18:01 60.28990 5.22726 172 ft 0 kts 182°
2026-05-06 18:25 60.28998 5.22727 172 ft 4 kts 185°
2026-05-06 18:25 60.29024 5.22737 173 ft 4 kts 207°
2026-05-06 18:26 60.29042 5.22769 174 ft 4 kts 258°
2026-05-06 18:26 60.29043 5.22794 174 ft 2 kts 277°
2026-05-06 18:26 60.29042 5.22796 174 ft 1 kts 277°
2026-05-06 18:28 60.29043 5.22792 174 ft 3 kts 277°
2026-05-06 18:28 60.29045 5.22619 173 ft 19 kts 263°
2026-05-06 18:29 60.29064 5.22340 165 ft 23 kts 310°
2026-05-06 18:29 60.29153 5.22201 162 ft 17 kts 351°
2026-05-06 18:29 60.29320 5.22145 160 ft 31 kts 351°
2026-05-06 18:29 60.29535 5.22072 152 ft 32 kts 350°
2026-05-06 18:30 60.29745 5.22000 147 ft 29 kts 350°
2026-05-06 18:30 60.29939 5.21932 154 ft 27 kts 350°
2026-05-06 18:30 60.30121 5.21870 162 ft 26 kts 351°
2026-05-06 18:30 60.30291 5.21816 166 ft 24 kts 351°
2026-05-06 18:31 60.30449 5.21765 173 ft 23 kts 351°
2026-05-06 18:31 60.30603 5.21716 179 ft 22 kts 351°
2026-05-06 18:31 60.30651 5.21482 182 ft 21 kts 255°
2026-05-06 18:31 60.30582 5.21400 181 ft 0 kts 170°
2026-05-06 18:32 60.30560 5.21408 179 ft 23 kts 170°
2026-05-06 18:32 60.30008 5.21593 161 ft 132 kts 171°
2026-05-06 18:32 60.28845 5.21975 519 ft 189 kts 171°
2026-05-06 18:33 60.27495 5.22377 1785 ft 207 kts 173°
2026-05-06 18:33 60.25976 5.22810 2707 ft 229 kts 174°
2026-05-06 18:33 60.24357 5.23250 3500 ft 238 kts 173°
2026-05-06 18:33 60.22702 5.23810 4266 ft 243 kts 172°
2026-05-06 18:34 60.21029 5.24420 5095 ft 246 kts 172°
2026-05-06 18:34 60.19336 5.25029 5702 ft 248 kts 172°
2026-05-06 18:34 60.17615 5.25635 5996 ft 262 kts 172°
2026-05-06 18:34 60.15776 5.26271 5989 ft 272 kts 172°
2026-05-06 18:35 60.13891 5.26921 6718 ft 276 kts 172°
2026-05-06 18:35 60.12042 5.27923 7800 ft 280 kts 154°
2026-05-06 18:35 60.10591 5.30545 8825 ft 287 kts 123°
2026-05-06 18:35 60.09944 5.34338 9797 ft 292 kts 92°
2026-05-06 18:36 60.10122 5.38391 10697 ft 296 kts 78°
2026-05-06 18:36 60.10890 5.42210 11458 ft 298 kts 49°
2026-05-06 18:36 60.12469 5.44812 12281 ft 297 kts 22°
2026-05-06 18:36 60.14503 5.45883 12553 ft 314 kts 358°
2026-05-06 18:37 60.16748 5.45625 12786 ft 335 kts 350°
2026-05-06 18:37 60.19130 5.45082 13195 ft 351 kts 351°
2026-05-06 18:37 60.21606 5.45583 13902 ft 369 kts 15°
2026-05-06 18:37 60.23878 5.48130 14663 ft 383 kts 34°
2026-05-06 18:38 60.25728 5.52124 15286 ft 400 kts 52°
2026-05-06 18:38 60.26958 5.57244 15892 ft 414 kts 70°
2026-05-06 18:38 60.27424 5.63035 16438 ft 426 kts 89°
2026-05-06 18:38 60.27020 5.68992 17012 ft 433 kts 107°
2026-05-06 18:39 60.25848 5.74562 17006 ft 432 kts 125°
2026-05-06 18:39 60.24115 5.79434 17054 ft 425 kts 133°
2026-05-06 18:39 60.22199 5.83956 17052 ft 423 kts 136°
2026-05-06 18:40 60.18320 5.92860 17039 ft 424 kts 135°
2026-05-06 18:40 60.16413 5.97410 17109 ft 429 kts 134°
2026-05-06 18:40 60.14499 6.02053 17739 ft 434 kts 134°
2026-05-06 18:40 60.12580 6.06769 18412 ft 438 kts 134°
2026-05-06 18:41 60.10654 6.11534 19009 ft 442 kts 134°
2026-05-06 18:41 60.08714 6.16345 19617 ft 446 kts 134°
2026-05-06 18:41 60.06759 6.21184 20259 ft 449 kts 134°
2026-05-06 18:41 60.04782 6.26059 20784 ft 453 kts 135°
2026-05-06 18:42 60.02785 6.30968 21389 ft 457 kts 135°
2026-05-06 18:42 60.00840 6.36038 21964 ft 463 kts 129°
2026-05-06 18:42 59.99238 6.41672 22567 ft 470 kts 122°
2026-05-06 18:42 59.97735 6.47528 23053 ft 476 kts 122°
2026-05-06 18:43 59.96233 6.53473 23492 ft 482 kts 121°
2026-05-06 18:43 59.94716 6.59471 23938 ft 486 kts 122°
2026-05-06 18:43 59.93188 6.65468 24496 ft 486 kts 122°
2026-05-06 18:43 59.91644 6.71468 25050 ft 487 kts 122°
2026-05-06 18:44 59.90079 6.77485 25532 ft 490 kts 123°
2026-05-06 18:44 59.88497 6.83518 25998 ft 493 kts 123°
2026-05-06 18:44 59.86902 6.89574 26444 ft 495 kts 123°
2026-05-06 18:44 59.85298 6.95642 26899 ft 498 kts 124°
2026-05-06 18:45 59.83700 7.01671 27332 ft 501 kts 124°
2026-05-06 18:45 59.82068 7.07811 27770 ft 503 kts 124°
2026-05-06 18:45 59.80427 7.13975 28184 ft 506 kts 124°
2026-05-06 18:45 59.79314 7.18145 28446 ft 508 kts 124°
2026-05-06 18:46 59.77116 7.26361 28951 ft 509 kts 125°
2026-05-06 18:46 59.75456 7.32553 29533 ft 507 kts 125°
2026-05-06 18:46 59.73802 7.38711 30109 ft 505 kts 126°
2026-05-06 18:46 59.72152 7.44839 30564 ft 503 kts 125°
2026-05-06 18:47 59.70503 7.50939 30929 ft 503 kts 125°
2026-05-06 18:47 59.67162 7.63218 31015 ft 508 kts 125°
2026-05-06 18:48 59.63820 7.75460 31010 ft 503 kts 125°
2026-05-06 18:48 59.60497 7.87572 30994 ft 501 kts 125°
2026-05-06 18:49 59.57158 7.99658 31001 ft 501 kts 125°
2026-05-06 18:49 59.53807 8.11724 30990 ft 502 kts 125°
2026-05-06 18:50 59.50992 8.21815 30995 ft 502 kts 125°
2026-05-06 18:50 59.47077 8.35780 30989 ft 501 kts 126°
2026-05-06 18:51 59.43699 8.47760 30971 ft 500 kts 126°
2026-05-06 18:51 59.40320 8.59682 30969 ft 499 kts 126°
2026-05-06 18:52 59.36935 8.71564 30980 ft 498 kts 126°
2026-05-06 18:52 59.33553 8.83367 30979 ft 497 kts 126°
2026-05-06 18:53 59.30155 8.95168 30976 ft 497 kts 126°
2026-05-06 18:53 59.26750 9.06936 30935 ft 496 kts 126°
2026-05-06 18:54 59.23349 9.18634 30963 ft 496 kts 126°
2026-05-06 18:54 59.19930 9.30324 30952 ft 495 kts 126°
2026-05-06 18:55 59.16503 9.41985 30960 ft 496 kts 126°
2026-05-06 18:55 59.13062 9.53637 30968 ft 496 kts 126°
2026-05-06 18:56 59.09607 9.65278 30937 ft 496 kts 126°
2026-05-06 18:56 59.06150 9.76872 30974 ft 496 kts 127°
2026-05-06 18:57 59.02680 9.88446 30963 ft 496 kts 127°
2026-05-06 18:57 58.99199 10.00000 30971 ft 496 kts 127°
2026-05-06 18:58 58.95710 10.11525 30960 ft 495 kts 127°
2026-05-06 18:58 58.92215 10.23013 30975 ft 494 kts 127°
2026-05-06 18:58 58.90468 10.28735 31079 ft 496 kts 127°
2026-05-06 18:59 58.88711 10.34473 31467 ft 495 kts 127°
2026-05-06 18:59 58.86959 10.40186 31908 ft 493 kts 127°
2026-05-06 18:59 58.85214 10.45867 32365 ft 490 kts 127°
2026-05-06 18:59 58.83473 10.51517 32807 ft 489 kts 127°
2026-05-06 19:00 58.81753 10.57070 33183 ft 487 kts 128°
2026-05-06 19:00 58.79796 10.62455 33506 ft 480 kts 137°
2026-05-06 19:00 58.77519 10.67067 33862 ft 472 kts 143°
2026-05-06 19:00 58.75967 10.69984 34105 ft 471 kts 143°
2026-05-06 19:01 58.72815 10.75839 34407 ft 471 kts 143°
2026-05-06 19:01 58.70491 10.80153 34738 ft 469 kts 143°
2026-05-06 19:01 58.68152 10.84517 35045 ft 468 kts 142°
2026-05-06 19:01 58.65815 10.88895 35243 ft 470 kts 142°
2026-05-06 19:02 58.63471 10.93295 35423 ft 472 kts 142°
2026-05-06 19:02 58.61126 10.97704 35673 ft 472 kts 142°
2026-05-06 19:02 58.58783 11.02110 35940 ft 472 kts 142°
2026-05-06 19:02 58.56440 11.06511 36167 ft 472 kts 141°
2026-05-06 19:03 58.54091 11.10912 36362 ft 472 kts 141°
2026-05-06 19:03 58.51745 11.15300 36633 ft 472 kts 141°
2026-05-06 19:03 58.50189 11.18205 36789 ft 472 kts 141°
2026-05-06 19:03 58.47044 11.24063 37053 ft 473 kts 141°
2026-05-06 19:04 58.45483 11.26963 37181 ft 473 kts 141°
2026-05-06 19:04 58.43127 11.31335 37461 ft 471 kts 141°
2026-05-06 19:04 58.40782 11.35681 37737 ft 470 kts 141°
2026-05-06 19:04 58.38435 11.40017 37895 ft 471 kts 141°
2026-05-06 19:05 58.36073 11.44371 38046 ft 473 kts 141°
2026-05-06 19:05 58.33707 11.48726 38260 ft 473 kts 141°
2026-05-06 19:05 58.31345 11.53066 38495 ft 472 kts 141°
2026-05-06 19:05 58.28979 11.57405 38675 ft 473 kts 141°
2026-05-06 19:06 58.26610 11.61740 38830 ft 473 kts 141°
2026-05-06 19:06 58.24238 11.66071 38936 ft 474 kts 141°
2026-05-06 19:06 58.21853 11.70417 38950 ft 476 kts 141°
2026-05-06 19:07 58.17089 11.79080 38950 ft 473 kts 141°
2026-05-06 19:07 58.12350 11.87662 38954 ft 471 kts 141°
2026-05-06 19:08 58.07621 11.96192 38953 ft 469 kts 141°
2026-05-06 19:08 58.02904 12.04666 38957 ft 468 kts 141°
2026-05-06 19:09 57.98186 12.13109 38959 ft 468 kts 141°
2026-05-06 19:09 57.93453 12.21546 38951 ft 468 kts 141°
2026-05-06 19:10 57.88709 12.29969 38933 ft 470 kts 142°
2026-05-06 19:10 57.83958 12.38376 38936 ft 470 kts 141°
2026-05-06 19:11 57.79184 12.46791 38943 ft 471 kts 142°
2026-05-06 19:11 57.74398 12.55194 38946 ft 472 kts 142°
2026-05-06 19:12 57.69596 12.63594 38947 ft 473 kts 142°
2026-05-06 19:12 57.64778 12.71990 38943 ft 474 kts 142°
2026-05-06 19:13 57.59951 12.80371 38938 ft 474 kts 142°
2026-05-06 19:13 57.55120 12.88726 38950 ft 474 kts 142°
2026-05-06 19:14 57.50283 12.97059 38934 ft 473 kts 142°
2026-05-06 19:14 57.45480 13.05303 38951 ft 473 kts 142°
2026-05-06 19:15 57.40611 13.13630 38954 ft 473 kts 142°
2026-05-06 19:15 57.35767 13.21881 38943 ft 473 kts 142°
2026-05-06 19:16 57.30926 13.30097 38949 ft 472 kts 142°
2026-05-06 19:16 57.26109 13.38241 38950 ft 472 kts 142°
2026-05-06 19:17 57.21268 13.46395 38955 ft 471 kts 142°
2026-05-06 19:17 57.16424 13.54526 38948 ft 470 kts 142°
2026-05-06 19:18 57.11578 13.62627 38959 ft 470 kts 142°
2026-05-06 19:18 57.06738 13.70691 38938 ft 469 kts 142°
2026-05-06 19:19 57.01896 13.78728 38958 ft 469 kts 142°
2026-05-06 19:19 56.97060 13.86725 38967 ft 468 kts 142°
2026-05-06 19:20 56.92221 13.94698 38965 ft 468 kts 143°
2026-05-06 19:20 56.87379 14.02648 38973 ft 468 kts 143°
2026-05-06 19:21 56.82534 14.10573 38968 ft 467 kts 143°
2026-05-06 19:21 56.77685 14.18476 38963 ft 467 kts 143°
2026-05-06 19:22 56.72839 14.26346 38972 ft 467 kts 143°
2026-05-06 19:22 56.67989 14.34194 38973 ft 467 kts 143°
2026-05-06 19:23 56.63133 14.42024 38985 ft 467 kts 143°
2026-05-06 19:23 56.58272 14.49833 38993 ft 467 kts 143°
2026-05-06 19:24 56.53408 14.57619 38980 ft 467 kts 143°
2026-05-06 19:24 56.48539 14.65387 38974 ft 466 kts 143°
2026-05-06 19:25 56.43676 14.73117 38975 ft 466 kts 143°
2026-05-06 19:25 56.38801 14.80837 38983 ft 466 kts 143°
2026-05-06 19:26 56.33926 14.88531 38989 ft 466 kts 143°
2026-05-06 19:26 56.29080 14.96153 38985 ft 466 kts 143°
2026-05-06 19:27 56.24192 15.03814 38967 ft 466 kts 143°
2026-05-06 19:27 56.19305 15.11445 38978 ft 466 kts 143°
2026-05-06 19:28 56.14414 15.19058 38976 ft 465 kts 143°
2026-05-06 19:28 56.09522 15.26645 38978 ft 465 kts 143°
2026-05-06 19:29 56.04633 15.34200 38982 ft 464 kts 143°
2026-05-06 19:29 55.99739 15.41737 38975 ft 464 kts 144°
2026-05-06 19:30 55.94840 15.49255 38966 ft 464 kts 144°
2026-05-06 19:30 55.89946 15.56741 38973 ft 464 kts 144°
2026-05-06 19:31 55.85041 15.64216 38973 ft 464 kts 144°
2026-05-06 19:31 55.77673 15.75398 38960 ft 464 kts 144°
2026-05-06 19:32 55.72761 15.82821 38965 ft 464 kts 144°
2026-05-06 19:32 55.67834 15.90240 38940 ft 465 kts 144°
2026-05-06 19:33 55.62898 15.97648 38953 ft 465 kts 144°
2026-05-06 19:33 55.57955 16.05040 38954 ft 465 kts 144°
2026-05-06 19:34 55.53004 16.12422 38954 ft 466 kts 144°
2026-05-06 19:34 55.48039 16.19797 38948 ft 467 kts 144°
2026-05-06 19:35 55.43072 16.27151 38943 ft 467 kts 144°
2026-05-06 19:35 55.38095 16.34496 38943 ft 467 kts 144°
2026-05-06 19:36 55.33145 16.41777 38939 ft 467 kts 144°
2026-05-06 19:36 55.28158 16.49089 38934 ft 467 kts 144°
2026-05-06 19:37 55.23115 16.56245 38931 ft 466 kts 146°
2026-05-06 19:37 55.18840 16.62086 38935 ft 465 kts 147°
2026-05-06 19:38 55.12902 16.70166 38907 ft 465 kts 147°
2026-05-06 19:38 55.07806 16.77119 38920 ft 465 kts 147°
2026-05-06 19:39 55.02710 16.84066 38927 ft 465 kts 147°
2026-05-06 19:39 54.97610 16.90999 38918 ft 465 kts 147°
2026-05-06 19:40 54.92504 16.97917 38921 ft 465 kts 147°
2026-05-06 19:40 54.87392 17.04819 38913 ft 465 kts 147°
2026-05-06 19:41 54.82279 17.11701 38904 ft 465 kts 147°
2026-05-06 19:41 54.77172 17.18551 38904 ft 464 kts 147°
2026-05-06 19:42 54.72058 17.25388 38902 ft 464 kts 147°
2026-05-06 19:42 54.66943 17.32203 38893 ft 464 kts 147°
2026-05-06 19:43 54.61817 17.39011 38895 ft 464 kts 147°
2026-05-06 19:43 54.56694 17.45794 38866 ft 464 kts 147°
2026-05-06 19:44 54.51567 17.52559 38883 ft 464 kts 147°
2026-05-06 19:44 54.46444 17.59298 38872 ft 464 kts 147°
2026-05-06 19:45 54.41315 17.66022 38881 ft 464 kts 147°
2026-05-06 19:45 54.36215 17.72686 38883 ft 464 kts 148°
2026-05-06 19:46 54.31047 17.79418 38865 ft 464 kts 148°
2026-05-06 19:46 54.25941 17.86048 38861 ft 464 kts 148°
2026-05-06 19:47 54.20769 17.92743 38862 ft 463 kts 148°
2026-05-06 19:47 54.15660 17.99334 38860 ft 463 kts 148°
2026-05-06 19:48 54.10523 18.05941 38854 ft 462 kts 148°
2026-05-06 19:48 54.05389 18.12522 38855 ft 461 kts 148°
2026-05-06 19:49 54.00261 18.19075 38834 ft 461 kts 148°
2026-05-06 19:49 53.95132 18.25609 38843 ft 461 kts 148°
2026-05-06 19:50 53.90004 18.32121 38851 ft 460 kts 148°
2026-05-06 19:50 53.84870 18.38620 38842 ft 461 kts 148°
2026-05-06 19:51 53.80604 18.44004 38834 ft 460 kts 148°
2026-05-06 19:51 53.75466 18.50472 38836 ft 460 kts 148°
2026-05-06 19:52 53.70324 18.56924 38820 ft 460 kts 148°
2026-05-06 19:52 53.65182 18.63357 38822 ft 460 kts 148°
2026-05-06 19:53 53.60035 18.69774 38827 ft 460 kts 149°
2026-05-06 19:53 53.54891 18.76170 38817 ft 460 kts 149°
2026-05-06 19:54 53.49773 18.82513 38811 ft 459 kts 148°
2026-05-06 19:54 53.44594 18.88912 38790 ft 459 kts 148°
2026-05-06 19:55 53.39492 18.95196 38810 ft 458 kts 148°
2026-05-06 19:55 53.34350 19.01511 38812 ft 458 kts 148°
2026-05-06 19:56 53.29217 19.07796 38800 ft 458 kts 149°
2026-05-06 19:56 53.26636 19.10948 38431 ft 464 kts 149°
2026-05-06 19:56 53.24030 19.14128 37788 ft 461 kts 149°
2026-05-06 19:57 53.21445 19.17279 37031 ft 459 kts 149°
2026-05-06 19:57 53.18885 19.20436 36307 ft 457 kts 149°
2026-05-06 19:57 53.16350 19.23624 35566 ft 455 kts 148°
2026-05-06 19:57 53.13831 19.26817 34764 ft 456 kts 149°
2026-05-06 19:58 53.11305 19.30018 33950 ft 456 kts 149°
2026-05-06 19:58 53.08776 19.33212 32998 ft 457 kts 149°
2026-05-06 19:58 53.06248 19.36395 32062 ft 456 kts 149°
2026-05-06 19:58 53.03714 19.39575 31136 ft 456 kts 149°
2026-05-06 19:59 53.01180 19.42747 30171 ft 456 kts 149°
2026-05-06 19:59 52.98642 19.45918 29043 ft 457 kts 149°
2026-05-06 19:59 52.96104 19.49084 27910 ft 456 kts 149°
2026-05-06 19:59 52.93567 19.52244 26773 ft 457 kts 149°
2026-05-06 20:00 52.91025 19.55406 25863 ft 453 kts 149°
2026-05-06 20:00 52.88527 19.58519 24996 ft 447 kts 149°
2026-05-06 20:00 52.86058 19.61584 24211 ft 441 kts 149°
2026-05-06 20:00 52.83615 19.64610 23427 ft 436 kts 149°
2026-05-06 20:01 52.81197 19.67598 22535 ft 431 kts 149°
2026-05-06 20:01 52.78810 19.70545 21712 ft 426 kts 149°
2026-05-06 20:01 52.76460 19.73444 21275 ft 412 kts 149°
2026-05-06 20:01 52.74218 19.76216 21098 ft 394 kts 149°
2026-05-06 20:02 52.72067 19.78865 20932 ft 378 kts 149°
2026-05-06 20:02 52.70042 19.81432 20769 ft 368 kts 144°
2026-05-06 20:02 52.68441 19.84734 20517 ft 373 kts 127°
2026-05-06 20:02 52.67165 19.88441 20245 ft 376 kts 125°
2026-05-06 20:03 52.65870 19.92256 19945 ft 385 kts 125°
2026-05-06 20:03 52.64556 19.96122 19629 ft 386 kts 125°
2026-05-06 20:03 52.63247 19.99952 19316 ft 383 kts 125°
2026-05-06 20:03 52.61938 20.03749 19002 ft 379 kts 126°
2026-05-06 20:04 52.60637 20.07499 18704 ft 377 kts 126°
2026-05-06 20:04 52.59337 20.11227 18400 ft 375 kts 126°
2026-05-06 20:04 52.58039 20.14936 18105 ft 373 kts 126°
2026-05-06 20:04 52.56751 20.18611 17775 ft 371 kts 126°
2026-05-06 20:05 52.55464 20.22275 17454 ft 369 kts 126°
2026-05-06 20:05 52.54186 20.25916 17146 ft 366 kts 126°
2026-05-06 20:05 52.52929 20.29493 16843 ft 357 kts 126°
2026-05-06 20:05 52.51703 20.32977 16559 ft 348 kts 126°
2026-05-06 20:06 52.50509 20.36375 16280 ft 340 kts 126°
2026-05-06 20:06 52.49351 20.39706 16023 ft 332 kts 125°
2026-05-06 20:06 52.48217 20.42973 15757 ft 326 kts 126°
2026-05-06 20:06 52.47102 20.46178 15503 ft 323 kts 126°
2026-05-06 20:07 52.45990 20.49364 15254 ft 321 kts 125°
2026-05-06 20:07 52.44881 20.52538 15004 ft 320 kts 125°
2026-05-06 20:07 52.43778 20.55693 14746 ft 319 kts 125°
2026-05-06 20:07 52.42677 20.58838 14494 ft 318 kts 125°
2026-05-06 20:08 52.41577 20.61979 14244 ft 317 kts 125°
2026-05-06 20:08 52.40478 20.65112 14009 ft 317 kts 125°
2026-05-06 20:08 52.39380 20.68233 13758 ft 316 kts 125°
2026-05-06 20:08 52.38283 20.71350 13489 ft 316 kts 125°
2026-05-06 20:09 52.37187 20.74460 13214 ft 315 kts 125°
2026-05-06 20:09 52.36090 20.77566 12933 ft 314 kts 125°
2026-05-06 20:09 52.35003 20.80642 12683 ft 312 kts 125°
2026-05-06 20:09 52.33920 20.83706 12432 ft 311 kts 125°
2026-05-06 20:10 52.32839 20.86760 12183 ft 309 kts 125°
2026-05-06 20:10 52.31778 20.89753 11938 ft 307 kts 125°
2026-05-06 20:10 52.30696 20.92804 11680 ft 305 kts 125°
2026-05-06 20:10 52.29634 20.95795 11451 ft 303 kts 125°
2026-05-06 20:11 52.28578 20.98761 11213 ft 302 kts 125°
2026-05-06 20:11 52.27506 21.01690 10970 ft 298 kts 130°
2026-05-06 20:11 52.26012 21.03889 10736 ft 285 kts 154°
2026-05-06 20:11 52.24283 21.05423 10523 ft 282 kts 157°
2026-05-06 20:12 52.22568 21.06863 10286 ft 280 kts 157°
2026-05-06 20:12 52.20822 21.08335 10076 ft 277 kts 156°
2026-05-06 20:12 52.19154 21.09760 9847 ft 271 kts 156°
2026-05-06 20:12 52.17500 21.11179 9619 ft 266 kts 156°
2026-05-06 20:13 52.15880 21.12572 9400 ft 261 kts 156°
2026-05-06 20:13 52.14296 21.13942 9159 ft 255 kts 156°
2026-05-06 20:13 52.12751 21.15296 8957 ft 250 kts 156°
2026-05-06 20:13 52.11237 21.16623 8759 ft 244 kts 156°
2026-05-06 20:14 52.09752 21.17924 8567 ft 241 kts 156°
2026-05-06 20:14 52.08281 21.19210 8382 ft 240 kts 156°
2026-05-06 20:14 52.06815 21.20491 8194 ft 239 kts 156°
2026-05-06 20:14 52.05347 21.21772 8003 ft 239 kts 156°
2026-05-06 20:15 52.03881 21.23050 7810 ft 239 kts 156°
2026-05-06 20:15 52.02418 21.24324 7610 ft 239 kts 156°
2026-05-06 20:15 52.00954 21.25599 7419 ft 239 kts 156°
2026-05-06 20:15 51.99490 21.26864 7233 ft 239 kts 156°
2026-05-06 20:16 51.98021 21.28128 7041 ft 238 kts 156°
2026-05-06 20:16 51.96557 21.29388 6858 ft 238 kts 156°
2026-05-06 20:16 51.95093 21.30646 6656 ft 238 kts 156°
2026-05-06 20:16 51.93632 21.31903 6463 ft 237 kts 156°
2026-05-06 20:17 51.92176 21.33154 6274 ft 237 kts 156°
2026-05-06 20:17 51.90645 21.33984 6046 ft 230 kts 182°
2026-05-06 20:17 51.89134 21.33407 5885 ft 223 kts 209°
2026-05-06 20:17 51.87940 21.31866 5749 ft 219 kts 230°
2026-05-06 20:18 51.87147 21.29798 5701 ft 218 kts 240°
2026-05-06 20:18 51.86452 21.27581 5540 ft 225 kts 248°
2026-05-06 20:18 51.86401 21.25033 5347 ft 237 kts 285°
2026-05-06 20:18 51.87382 21.22883 5184 ft 245 kts 317°
2026-05-06 20:19 51.88745 21.21241 4990 ft 243 kts 320°
2026-05-06 20:19 51.90142 21.19802 4919 ft 233 kts 326°
2026-05-06 20:19 51.91525 21.18592 4817 ft 219 kts 327°
2026-05-06 20:19 51.92822 21.17477 4707 ft 204 kts 327°
2026-05-06 20:20 51.94029 21.16431 4600 ft 192 kts 327°
2026-05-06 20:20 51.95196 21.15411 4454 ft 191 kts 327°
2026-05-06 20:20 51.96359 21.14393 4277 ft 189 kts 327°
2026-05-06 20:20 51.97516 21.13381 4074 ft 186 kts 327°
2026-05-06 20:21 51.98614 21.12420 3874 ft 173 kts 326°
2026-05-06 20:21 51.99667 21.11496 3707 ft 172 kts 326°
2026-05-06 20:21 52.00712 21.10580 3515 ft 170 kts 326°
2026-05-06 20:21 52.01722 21.09700 3378 ft 157 kts 326°
2026-05-06 20:22 52.02640 21.08900 3193 ft 143 kts 325°
2026-05-06 20:22 52.03483 21.08162 3036 ft 135 kts 325°
2026-05-06 20:22 52.04296 21.07449 2876 ft 135 kts 325°
2026-05-06 20:22 52.05117 21.06730 2723 ft 132 kts 325°
2026-05-06 20:23 52.05931 21.06018 2512 ft 133 kts 325°
2026-05-06 20:23 52.06739 21.05312 2354 ft 132 kts 325°
2026-05-06 20:23 52.07551 21.04602 2172 ft 133 kts 326°
2026-05-06 20:23 52.08369 21.03887 1994 ft 134 kts 326°
2026-05-06 20:24 52.09190 21.03171 1813 ft 134 kts 326°
2026-05-06 20:24 52.10008 21.02456 1643 ft 134 kts 327°
2026-05-06 20:24 52.10815 21.01740 1479 ft 130 kts 326°
2026-05-06 20:24 52.11602 21.01018 1321 ft 131 kts 327°
2026-05-06 20:25 52.12404 21.00318 1138 ft 132 kts 329°
2026-05-06 20:25 52.13213 20.99630 929 ft 129 kts 327°
2026-05-06 20:25 52.13989 20.98931 740 ft 128 kts 330°
2026-05-06 20:25 52.14767 20.98265 565 ft 127 kts 332°
2026-05-06 20:26 52.15545 20.97605 384 ft 124 kts 333°
2026-05-06 20:26 52.16265 20.96982 336 ft 105 kts 331°
2026-05-06 20:26 52.16773 20.96542 336 ft 39 kts 339°
2026-05-06 20:26 52.17033 20.96509 337 ft 29 kts
2026-05-06 20:27 52.17096 20.96585 335 ft 11 kts 62°
2026-05-06 20:27 52.17132 20.96697 334 ft 13 kts 61°
2026-05-06 20:27 52.17152 20.96843 336 ft 15 kts 133°
2026-05-06 20:27 52.17054 20.96932 334 ft 17 kts 151°
2026-05-06 20:28 52.16973 20.97019 336 ft 6 kts 99°
2026-05-06 20:28 52.16986 20.97080 335 ft 6 kts 71°
2026-05-06 20:28 52.16999 20.97140 337 ft 6 kts 69°
2026-05-06 20:28 52.17000 20.97146 336 ft 0 kts 69°